Flag Weather past 2 weeks in Norwalk, California, U.S.A.

Now
70 °F

Clear.


Feels Like: 76 °F
Forecast: 53 / 79 °F
Wind: No wind

Location: Fullerton Municipal Airport

Current Time: Nov 27, 2014 at 7:06:53 PM

Latest Report: Nov 27, 2014 at 5:53 PM


Visibility: 10 mi

Pressure: 29.99 "Hg

Humidity: 31%

Dew point: 38 °F

Location of NorwalkLocation

Historic Weather in Norwalk — Graph

°F

Norwalk temperature yesterday

Maximum temperature yesterday: 89 °F (at 1:53 PM)
Minimum temperature yesterday: 48 °F (at 4:53 AM)
Average temperature yesterday: 65 °F

Past Weeks' High & Low Weather Summary

 TemperatureHumidityPressure
High91 °F (Nov 27, 1:53 PM)93% (Nov 23, 4:53 AM)30.37 "Hg (Nov 23, 4:53 AM)
Low48 °F (Nov 24, 5:53 AM)3% (Nov 16, 2:53 PM)29.91 "Hg (Nov 21, 4:53 AM)
Average64 °F48%30.08 "Hg
* Reported Nov 12 5:53 PM — Nov 27 5:53 PM, Norwalk, Weather by CustomWeather, © 2014

Note: Actual official high and low records may vary slightly from our data, if they occured in-between our weather recording intervals... More about our weather records

Advertising

Norwalk weather history for previous 24 hours

 ConditionsComfort  
Time TempWeatherWind HumidityBarometerVisibility
5:53 PM
Nov 27
70 °FClear.No wind31%29.99 "Hg10 mi
4:53 PM77 °FClear.No wind18%29.98 "Hg10 mi
3:53 PM82 °FSunny.6 mph19%29.98 "Hg10 mi
2:53 PM89 °FSunny.3 mph8%29.98 "Hg10 mi
1:53 PM91 °FSunny.No wind8%29.98 "Hg10 mi
12:53 PM89 °FSunny.No wind9%30.01 "Hg10 mi
11:53 AM86 °FSunny.6 mph13%30.04 "Hg10 mi
10:53 AM85 °FSunny.No wind13%30.06 "Hg10 mi
9:53 AM79 °FSunny.No wind16%30.09 "Hg10 mi
8:53 AM69 °FSunny.No wind23%30.09 "Hg10 mi
7:53 AM58 °FSunny.5 mph41%30.09 "Hg10 mi
6:53 AM51 °FSunny.No wind56%30.08 "Hg10 mi
5:53 AM50 °FClear.No wind59%30.07 "Hg10 mi
4:53 AM52 °FClear.No wind53%30.06 "Hg10 mi
3:53 AM52 °FClear.No wind55%30.07 "Hg10 mi
2:53 AM54 °FClear.No wind53%30.08 "Hg10 mi
1:53 AM55 °FClear.No wind53%30.09 "Hg10 mi
12:53 AM55 °FClear.No wind55%30.09 "Hg10 mi
11:53 PM
Nov 26
56 °FClear.No wind51%30.10 "Hg10 mi
10:53 PM57 °FClear.No wind49%30.11 "Hg10 mi
9:53 PM59 °FClear.No wind44%30.11 "Hg10 mi
8:53 PM61 °FClear.No wind39%30.12 "Hg10 mi
7:53 PM63 °FClear.No wind45%30.12 "Hg10 mi
Weather by CustomWeather, © 2014

See weather overviewHow to use our weather pages